Preview of NWS' New Version of Forecast
This preview is not operational and should not be used for support decisions.

Regional Weather Roundup (RWR)

Issued by National Weather Service (NWS)

                            
000
ASUS44 KMEG 200600
RWRTN 
TENNESSEE HOURLY STATE WEATHER ROUNDUP
NATIONAL WEATHER SERVICE MEMPHIS TN
100 AM CDT THU JUN 20 2019

TNZ002-004-019-021-049-052-054-088>092-200700-
WEST TENNESSEE
  
CITY           SKY/WX    TMP DP  RH WIND       PRES   REMARKS
MEMPHIS INTL   LGT RAIN  71  69  93 VRB5      29.70F                  
NWS MEMPHIS      N/A     70 N/A N/A MISG        N/A                   
JACKSON        CLOUDY    74  72  93 SW5       29.69S THUNDER          
DYERSBURG      LGT RAIN  76  69  79 SW20G35   29.68R                  
$$

TNZ008-025-027-028-033-062-065-066-200700-
NORTH MIDDLE TENNESSEE
  
CITY           SKY/WX    TMP DP  RH WIND       PRES   REMARKS
NASHVILLE      MOCLDY    71  68  90 S5        29.69F                  
CLARKSVILLE    FAIR      70  69  97 SE3       29.66F                  
SMYRNA         FAIR      69  68  96 SE6       29.71F                  
CROSSVILLE     FAIR      64  62  93 S3        29.81F                  
$$

TNZ061-075-076-078-094-096-097-200700-
SOUTH MIDDLE TENNESSEE
  
CITY           SKY/WX    TMP DP  RH WIND       PRES   REMARKS
$$

TNZ017-018-042-046-047-200700-
NORTHEAST TENNESSEE
  
CITY           SKY/WX    TMP DP  RH WIND       PRES   REMARKS
TRI CITIES     MOCLDY    69  66  90 CALM      29.77F                  
$$

TNZ012-013-036-069-073-074-200700-
CENTRAL EAST TENNESSEE
  
CITY           SKY/WX    TMP DP  RH WIND       PRES   REMARKS
KNOXVILLE      RAIN      66  64  93 SW15      29.82R                  
OAK RIDGE      LGT RAIN  68  65  90 VRB5      29.82R                  
$$

TNZ083-085-099-200700-
SOUTHEAST TENNESSEE
  
CITY           SKY/WX    TMP DP  RH WIND       PRES   REMARKS
CHATTANOOGA    FAIR      78  73  84 SW3       29.78F                  
$$

SKY/WX REPORTED AS FAIR MEANS FEW OR NO CLOUDS BELOW
12 THOUSAND FEET.